Tracking 18951 objects as of 21-Jan-2018
HD Live streaming from Space Station
objects crossing your sky now

ARIANE 5 R/B

Track ARIANE 5 R/B now!


NORAD ID: 33156
Int'l Code: 2008-034D
Perigee: 265.4 km
Apogee: 34,252.7 km
Inclination: 2.2 °
Period: 602.5 minutes
Semi major axis: 23630 km
RCS: 21.1591 m2 (large)
Launch date: July 7, 2008
Source: France (FR)
Launch site: FRENCH GUIANA (FRGUI)

Note: This is a ROCKET BODY
aabbcc
Your satellite tracking list
Your tracking list is empty




NASA's NSSDC Master Catalog

Two Line Element Set (TLE):
1 33156U 08034D   18020.75144761  .00002176  00000-0  69480-3 0  9995
2 33156   2.1575  36.3962 7191554 251.4819  23.8164  2.39004405 81315
Source of the keplerian elements: AFSPC